Macomb, IL

1:04 PM CDT on September 21, 2019 (GMT -0500)
Macomb Municipal

Weather History for KMQB - August, 2019

Change the Weather History Date:

Saturday, August 17, 2019

  Actual Average (KBRL) Record (KBRL)
Temperature  
Mean Temperature 74 °F -  
Max Temperature 80 °F 87 °F 105 °F (1983)
Min Temperature 68 °F 66 °F 52 °F (2012)
Cooling Degree Days 8    
Growing Degree Days 24 (Base 50)    
Moisture  
Dew Point 69 °F    
Average Humidity 87    
Maximum Humidity 100    
Minimum Humidity 66    
Precipitation  
Precipitation 0.05 in - - ()
Sea Level Pressure  
Sea Level Pressure 29.90 in    
Wind  
Wind Speed 5 mph (South)    
Max Wind Speed 12 mph    
Max Gust Speed 16 mph    
Visibility 10 miles    
Events Rain , Thunderstorm    
Averages and records for this station are not official NWS values.
T = Trace of Precipitation, MM = Missing Value Source: NWS Daily Summary

Daily Weather History Graph

Daily Weather History Graph

Search for Another Location

Airport or City:

Astronomy

Aug. 17, 2019 Rise Set
Actual Time 6:15 AM CDT 7:57 PM CDT
Civil Twilight 5:45 AM CDT 8:26 PM CDT
Nautical Twilight 5:10 AM CDT 9:01 PM CDT
Astronomical Twilight 4:32 AM CDT 9:39 PM CDT
Moon 9:25 PM CDT (8/17) 8:04 AM CDT (8/17)
Length of Visible Light 14h 40m
Length of Day
13h 42m
Waning Gibbous, 96% of the Moon is Illuminated
Aug 17
Waning Gibbous
Aug 23
Last Quarter
Aug 30
New
Sep 5
First Quarter
Sep 13
Full

Hourly Weather History & Observations

Time (CDT) Temp. Dew Point Humidity Pressure Visibility Wind Dir Wind Speed Gust Speed Precip Events Conditions
12:15 AM 74.8 °F 68.0 °F 79% 29.94 in 10.0 mi SSW 9.2 mph - N/A   Overcast
12:35 AM 74.8 °F 67.6 °F 78% 29.94 in 10.0 mi SW 8.1 mph - N/A   Overcast
12:55 AM 74.3 °F 67.6 °F 80% 29.93 in 10.0 mi SSW 5.8 mph - N/A   Mostly Cloudy
1:15 AM 73.9 °F 68.0 °F 82% 29.94 in 10.0 mi WSW 4.6 mph - N/A   Overcast
1:35 AM 73.6 °F 68.0 °F 83% 29.94 in 10.0 mi WSW 3.5 mph - N/A   Overcast
1:55 AM 72.7 °F 67.5 °F 84% 29.92 in 10.0 mi SW 4.6 mph - N/A   Scattered Clouds
2:15 AM 71.6 °F 67.3 °F 86% 29.90 in 10.0 mi SW 3.5 mph - N/A   Clear
2:35 AM 70.9 °F 67.3 °F 88% 29.87 in 10.0 mi SSE 5.8 mph - N/A   Scattered Clouds
2:55 AM 70.9 °F 68.2 °F 91% 29.88 in 10.0 mi Calm Calm - N/A Rain Light Rain
3:15 AM 69.4 °F 68.0 °F 95% 29.88 in 10.0 mi Calm Calm - N/A   Clear
3:35 AM 68.9 °F 68.2 °F 98% 29.89 in 10.0 mi Calm Calm - N/A   Clear
3:55 AM 68.7 °F 68.2 °F 98% 29.89 in 10.0 mi Calm Calm - N/A   Mostly Cloudy
4:15 AM 69.6 °F 68.2 °F 95% 29.90 in 10.0 mi Calm Calm - N/A Rain Light Rain
4:35 AM 69.3 °F 68.2 °F 96% 29.90 in 10.0 mi Calm Calm - N/A   Overcast
4:55 AM 69.3 °F 68.4 °F 97% 29.90 in 10.0 mi Calm Calm - N/A Thunderstorm Overcast
5:15 AM 68.9 °F 68.2 °F 98% 29.90 in 10.0 mi Calm Calm - N/A   Overcast
5:35 AM 68.9 °F 68.5 °F 99% 29.91 in 10.0 mi Calm Calm - N/A   Overcast
5:55 AM 69.1 °F 68.9 °F 99% 29.90 in 10.0 mi Calm Calm - N/A   Overcast
6:15 AM 69.3 °F 69.1 °F 99% 29.92 in 10.0 mi Calm Calm - N/A Thunderstorm Overcast
6:35 AM 69.8 °F 69.1 °F 98% 29.94 in 10.0 mi SW 3.5 mph - N/A   Overcast
6:55 AM 70.3 °F 68.5 °F 94% 29.96 in 7.0 mi SSW 10.4 mph - 0.04 in Rain , Thunderstorm Light Thunderstorms and Rain
7:15 AM 69.8 °F 68.9 °F 97% 29.96 in 10.0 mi SW 5.8 mph - N/A Thunderstorm Thunderstorm
7:35 AM 69.3 °F 68.5 °F 98% 29.95 in 10.0 mi SW 4.6 mph - N/A   Mostly Cloudy
7:55 AM 68.9 °F 68.5 °F 99% 29.96 in 10.0 mi Calm Calm - N/A Rain Light Rain
8:15 AM 68.9 °F 68.7 °F 99% 29.96 in 10.0 mi SSE 3.5 mph - N/A Thunderstorm Scattered Clouds
8:35 AM 68.9 °F 68.5 °F 99% 29.96 in 10.0 mi SSE 5.8 mph - N/A Rain Light Rain
8:55 AM 69.1 °F 68.2 °F 97% 29.95 in 10.0 mi South 5.8 mph - N/A Rain Light Rain
9:15 AM 69.4 °F 68.4 °F 96% 29.93 in 10.0 mi SSE 3.5 mph - 0.01 in   Clear
9:35 AM 70.3 °F 68.7 °F 95% 29.87 in 10.0 mi East 5.8 mph - 0.01 in   Clear
9:55 AM 70.3 °F 69.3 °F 96% 29.85 in 10.0 mi NNE 5.8 mph - 0.01 in   Scattered Clouds
10:15 AM 70.9 °F 69.1 °F 94% 29.86 in 10.0 mi Calm Calm - N/A Rain Light Rain
10:35 AM 71.6 °F 69.6 °F 93% 29.87 in 10.0 mi ENE 5.8 mph - N/A   Clear
10:55 AM 72.7 °F 69.6 °F 90% 29.92 in 10.0 mi South 3.5 mph - N/A   Clear
11:15 AM 74.1 °F 70.0 °F 87% 29.93 in 10.0 mi SSE 5.8 mph - N/A   Mostly Cloudy
11:35 AM 75.2 °F 69.1 °F 81% 29.95 in 10.0 mi SSW 5.8 mph - N/A   Mostly Cloudy
11:55 AM 75.7 °F 69.8 °F 82% 29.95 in 10.0 mi South 5.8 mph - N/A   Overcast
12:15 PM 76.8 °F 70.0 °F 79% 29.96 in 10.0 mi South 5.8 mph - N/A   Mostly Cloudy
12:35 PM 77.5 °F 69.3 °F 76% 29.95 in 10.0 mi Calm Calm - N/A   Scattered Clouds
12:55 PM 77.4 °F 69.1 °F 76% 29.94 in 10.0 mi SE 4.6 mph - N/A   Scattered Clouds
1:15 PM 77.7 °F 68.7 °F 74% 29.94 in 10.0 mi SSE 6.9 mph - N/A   Scattered Clouds
1:35 PM 77.9 °F 68.0 °F 71% 29.95 in 10.0 mi South 9.2 mph 16.1 mph N/A   Mostly Cloudy
1:55 PM 79.9 °F 67.6 °F 66% 29.94 in 10.0 mi SSW 11.5 mph 16.1 mph N/A   Scattered Clouds
2:15 PM 78.1 °F 67.5 °F 70% 29.93 in 10.0 mi SSW 8.1 mph - N/A   Scattered Clouds
2:35 PM 77.0 °F 66.4 °F 70% 29.92 in 10.0 mi South 6.9 mph - N/A   Scattered Clouds
2:55 PM 76.8 °F 67.1 °F 72% 29.90 in 10.0 mi South 5.8 mph - N/A   Clear
3:15 PM 77.0 °F 66.4 °F 70% 29.90 in 10.0 mi SSW 8.1 mph - N/A   Clear
3:35 PM 77.7 °F 67.5 °F 71% 29.89 in 10.0 mi South 5.8 mph - N/A   Clear
3:55 PM 78.6 °F 68.2 °F 70% 29.88 in 10.0 mi South 9.2 mph - N/A   Clear
4:15 PM 78.8 °F 68.5 °F 71% 29.88 in 10.0 mi South 8.1 mph - N/A   Clear
4:35 PM 79.3 °F 69.4 °F 72% 29.88 in 10.0 mi South 6.9 mph - N/A   Scattered Clouds
4:55 PM 79.7 °F 70.0 °F 72% 29.88 in 10.0 mi South 9.2 mph - N/A   Mostly Cloudy
5:15 PM 79.5 °F 69.3 °F 71% 29.89 in 10.0 mi South 4.6 mph - N/A   Overcast
5:35 PM 79.3 °F 69.4 °F 72% 29.88 in 10.0 mi South 6.9 mph - N/A   Mostly Cloudy
5:55 PM 79.2 °F 69.3 °F 72% 29.88 in 10.0 mi South 6.9 mph - N/A   Scattered Clouds
6:15 PM 79.3 °F 69.1 °F 71% 29.88 in 10.0 mi SSW 6.9 mph - N/A   Mostly Cloudy
6:35 PM 78.8 °F 70.0 °F 74% 29.88 in 10.0 mi South 5.8 mph - N/A   Mostly Cloudy
6:55 PM 77.5 °F 69.6 °F 76% 29.88 in 10.0 mi SSW 8.1 mph - N/A   Scattered Clouds
7:15 PM 76.6 °F 69.6 °F 79% 29.87 in 10.0 mi South 6.9 mph - N/A   Clear
7:35 PM 75.2 °F 69.6 °F 83% 29.88 in 10.0 mi South 4.6 mph - N/A   Clear
7:55 PM 73.6 °F 69.8 °F 88% 29.88 in 10.0 mi South 4.6 mph - N/A   Clear
8:15 PM 72.7 °F 69.8 °F 91% 29.88 in 10.0 mi SSW 4.6 mph - N/A   Clear
8:35 PM 71.6 °F 69.4 °F 93% 29.87 in 10.0 mi South 3.5 mph - N/A   Clear
8:55 PM 69.8 °F 68.9 °F 97% 29.87 in 10.0 mi SSE 3.5 mph - N/A   Clear
9:15 PM 70.2 °F 69.1 °F 96% 29.87 in 10.0 mi South 4.6 mph - N/A   Clear
9:35 PM 69.1 °F 68.5 °F 98% 29.87 in 10.0 mi SSE 4.6 mph - N/A   Clear
9:55 PM 68.9 °F 68.4 °F 98% 29.87 in 10.0 mi SSE 4.6 mph - N/A   Clear
10:15 PM 68.5 °F 68.2 °F 99% 29.88 in 10.0 mi SSE 3.5 mph - N/A   Clear
10:35 PM 68.5 °F 68.4 °F 99% 29.87 in 10.0 mi SSE 4.6 mph - N/A   Clear
10:55 PM 68.9 °F 68.9 °F 100% 29.88 in 10.0 mi SSE 3.5 mph - N/A   Clear
11:15 PM 68.5 °F 68.5 °F 100% 29.88 in 7.0 mi South 4.6 mph - N/A   Clear
11:35 PM 69.8 °F 69.8 °F 100% 29.87 in 7.0 mi South 5.8 mph - N/A   Clear
11:55 PM 70.7 °F 70.7 °F 100% 29.86 in 10.0 mi South 8.1 mph - N/A   Mostly Cloudy